FW5704 Weather Reports


Display with metric or nautical units.
time (UTC)temp
F
wind
direction
speed
MPH
gust
MPH
rain 1hr
in
rain 24hr
in
rain mn
in
humidity
%
barometer
mb
20260503214545 64 251 3.0 9.0 0.00 0.00 0.00 31 1016.8
20260503214032 64 260 4.0 9.0 0.00 0.00 0.00 30 1016.8
20260503213532 64 0 2.0 13.0 0.00 0.00 0.00 29 1016.8
20260503213053 63 246 3.0 13.0 0.00 0.00 0.00 28 1016.9
20260503212535 64 242 4.0 11.0 0.00 0.00 0.00 30 1016.8
20260503212033 64 261 4.0 11.0 0.00 0.00 0.00 29 1017.0
20260503211602 64 279 3.0 10.0 0.00 0.00 0.00 28 1017.0
20260503211033 64 265 3.0 10.0 0.00 0.00 0.00 28 1017.0
20260503210533 64 257 3.0 10.0 0.00 0.00 0.00 29 1017.0
20260503210047 64 247 2.0 10.0 0.00 0.00 0.00 28 1017.1
20260503205533 64 259 3.0 11.0 0.00 0.00 0.00 25 1017.1
20260503205033 64 268 2.0 11.0 0.00 0.00 0.00 26 1017.2
20260503204547 63 247 3.0 15.0 0.00 0.00 0.00 27 1017.2
20260503204032 63 248 4.0 15.0 0.00 0.00 0.00 27 1017.3
20260503203536 63 267 4.0 13.0 0.00 0.00 0.00 25 1017.3
20260503203045 63 263 4.0 13.0 0.00 0.00 0.00 25 1017.3
20260503202532 63 246 5.0 13.0 0.00 0.00 0.00 25 1017.3
20260503202037 63 251 3.0 14.0 0.00 0.00 0.00 27 1017.4
20260503201541 63 251 5.0 14.0 0.00 0.00 0.00 28 1017.5
20260503201034 63 248 2.0 11.0 0.00 0.00 0.00 28 1017.4
20260503200534 63 251 4.0 12.0 0.00 0.00 0.00 29 1017.5
20260503200041 63 272 6.0 12.0 0.00 0.00 0.00 28 1017.5
20260503195533 63 271 5.0 11.0 0.00 0.00 0.00 29 1017.6
20260503195031 64 252 4.0 11.0 0.00 0.00 0.00 29 1017.8
20260503194549 64 270 2.0 9.0 0.00 0.00 0.00 32 1017.9
20260503194033 64 267 3.0 11.0 0.00 0.00 0.00 32 1018.1
20260503193533 63 252 3.0 11.0 0.00 0.00 0.00 32 1018.2
20260503193051 63 276 2.0 11.0 0.00 0.00 0.00 36 1018.2
20260503192533 63 263 5.0 11.0 0.00 0.00 0.00 34 1018.2
20260503192032 63 246 5.0 10.0 0.00 0.00 0.00 34 1018.3
20260503191545 63 251 2.0 10.0 0.00 0.00 0.00 38 1018.3
20260503191033 63 251 3.0 10.0 0.00 0.00 0.00 37 1018.3
20260503190532 63 246 3.0 9.0 0.00 0.00 0.00 38 1018.5
20260503190050 62 263 1.0 10.0 0.00 0.00 0.00 38 1018.5
20260503185535 62 269 3.0 10.0 0.00 0.00 0.00 38 1018.6
20260503185038 62 251 5.0 10.0 0.00 0.00 0.00 41 1018.6
20260503184601 63 152 1.0 6.0 0.00 0.00 0.00 38 1018.6
20260503184036 62 252 1.0 12.0 0.00 0.00 0.00 40 1018.7
20260503183535 62 246 4.0 13.0 0.00 0.00 0.00 43 1018.7
20260503183047 62 263 3.0 13.0 0.00 0.00 0.00 43 1018.7
20260503182543 62 277 2.0 12.0 0.00 0.00 0.00 43 1018.6
20260503182039 62 259 3.0 11.0 0.00 0.00 0.00 45 1018.8
20260503181552 62 247 1.0 7.0 0.00 0.00 0.00 48 1018.9
20260503181036 61 262 0.0 9.0 0.00 0.00 0.00 46 1018.9
20260503180536 61 257 4.0 9.0 0.00 0.00 0.00 47 1018.8
20260503180045 62 259 1.0 7.0 0.00 0.00 0.00 48 1018.9
20260503175536 61 334 0.0 10.0 0.00 0.00 0.00 51 1018.9
20260503175035 60 279 5.0 10.0 0.00 0.00 0.00 46 1019.0
20260503174604 61 259 2.0 9.0 0.00 0.00 0.00 47 1018.9
20260503174034 61 248 0.0 7.0 0.00 0.00 0.00 48 1018.9
20260503173535 61 0 2.0 7.0 0.00 0.00 0.00 52 1019.1
20260503173048 60 175 1.0 9.0 0.00 0.00 0.00 49 1019.3
20260503172536 59 144 3.0 9.0 0.00 0.00 0.00 48 1019.4
20260503172035 60 244 1.0 8.0 0.00 0.00 0.00 48 1019.4
20260503171546 60 240 2.0 8.0 0.00 0.00 0.00 49 1019.4
20260503171036 59 283 1.0 8.0 0.00 0.00 0.00 52 1019.5
20260503170536 59 267 1.0 8.0 0.00 0.00 0.00 50 1019.5
20260503150534 53 242 1.0 4.0 0.00 0.00 0.00 57 1020.3
20260503131034 43 0 0.0 3.0 0.00 0.00 0.00 80 1020.3
20260503130534 43 0 0.0 2.0 0.00 0.00 0.00 81 1020.2
20260503110535 36 63 0.0 1.0 0.00 0.00 0.00 89 1018.8
20260503081549 38 0 0.0 0.0 0.00 0.00 0.00 86 1017.4
20260503081033 38 0 0.0 0.0 0.00 0.00 0.00 86 1017.4
20260503080536 38 0 0.0 0.0 0.00 0.00 0.00 86 1017.4
20260503072533 40 0 0.0 1.0 0.00 0.00 0.00 84 1017.2
20260503072037 40 0 0.0 2.0 0.00 0.00 0.00 84 1017.1
20260503071547 40 0 0.0 2.0 0.00 0.00 0.00 84 1017.0
20260503071034 40 63 0.0 2.0 0.00 0.00 0.00 84 1017.0
20260503070536 40 63 0.0 2.0 0.00 0.00 0.00 84 1016.8
20260503055033 42 0 0.0 1.0 0.00 0.00 0.00 82 1016.6
20260503054545 42 0 0.0 1.0 0.00 0.00 0.00 81 1016.5
20260503054034 42 0 0.0 1.0 0.00 0.00 0.00 81 1016.6
20260503053534 42 0 0.0 1.0 0.00 0.00 0.00 81 1016.6
20260503053045 42 0 0.0 1.0 0.00 0.00 0.00 82 1016.7
20260503052534 42 0 0.0 2.0 0.00 0.00 0.00 82 1016.7
20260503052034 42 63 0.0 2.0 0.00 0.00 0.00 82 1016.7
20260503051544 42 0 0.0 2.0 0.00 0.00 0.00 81 1016.6
20260503051033 42 0 0.0 2.0 0.00 0.00 0.00 81 1016.7
20260503050533 42 0 0.0 2.0 0.00 0.00 0.00 82 1016.6
20260503050044 42 63 0.0 2.0 0.00 0.00 0.00 81 1016.7
20260503045533 42 63 0.0 1.0 0.00 0.00 0.00 81 1016.7
20260503045033 42 63 0.0 1.0 0.00 0.00 0.00 81 1016.7
20260503044552 42 0 0.0 1.0 0.00 0.00 0.00 80 1016.7
20260503044033 42 64 0.0 1.0 0.00 0.00 0.00 79 1016.7
20260503043533 43 0 0.0 1.0 0.00 0.00 0.00 79 1016.7
20260503043046 43 0 0.0 1.0 0.00 0.00 0.00 79 1016.7
20260503042535 43 0 0.0 3.0 0.00 0.00 0.00 79 1016.7
20260503042035 43 0 0.0 3.0 0.00 0.00 0.00 78 1016.6
20260503041545 43 0 0.0 1.0 0.00 0.00 0.00 79 1016.7
20260503041035 43 0 0.0 1.0 0.00 0.00 0.00 79 1016.7
20260503040533 43 0 0.0 1.0 0.00 0.00 0.00 79 1016.7
20260503040046 43 0 0.0 1.0 0.00 0.00 0.00 78 1016.6
20260503035533 43 0 0.0 1.0 0.00 0.00 0.00 78 1016.5
20260503035033 43 0 0.0 2.0 0.00 0.00 0.00 77 1016.5
20260503034600 43 0 0.0 2.0 0.00 0.00 0.00 76 1016.5
20260503034035 43 0 0.0 2.0 0.00 0.00 0.00 77 1016.4
20260503033538 43 102 0.0 2.0 0.00 0.00 0.00 78 1016.3
20260503033051 43 0 0.0 2.0 0.00 0.00 0.00 77 1016.3
20260503032537 43 0 0.0 1.0 0.00 0.00 0.00 77 1016.3
20260503032038 43 0 0.0 1.0 0.00 0.00 0.00 77 1016.2
20260503031549 43 0 0.0 1.0 0.00 0.00 0.00 77 1016.4
20260503031034 43 0 0.0 1.0 0.00 0.00 0.00 76 1016.4
20260503030534 43 0 0.0 1.0 0.00 0.00 0.00 76 1016.4
20260503030046 43 103 0.0 2.0 0.00 0.00 0.00 75 1016.4
20260503025533 43 103 0.0 2.0 0.00 0.00 0.00 76 1016.4
20260503025033 43 0 0.0 2.0 0.00 0.00 0.00 75 1016.3
20260503024549 44 0 0.0 2.0 0.00 0.00 0.00 74 1016.2
20260503024033 44 102 0.0 2.0 0.00 0.00 0.00 74 1016.2
20260503023533 44 102 1.0 2.0 0.00 0.00 0.00 73 1016.2
20260503023043 44 0 0.0 2.0 0.00 0.00 0.00 74 1016.1
20260503022535 44 106 0.0 2.0 0.00 0.00 0.00 72 1016.0
20260503022034 45 0 0.0 2.0 0.00 0.00 0.00 73 1016.0
20260503021546 45 0 0.0 2.0 0.00 0.00 0.00 71 1016.0
20260503021037 45 106 0.0 1.0 0.00 0.00 0.00 71 1015.9
20260503020534 45 0 0.0 2.0 0.00 0.00 0.00 71 1015.8
20260503020047 46 0 0.0 2.0 0.00 0.00 0.00 69 1015.8
20260503015534 46 0 0.0 2.0 0.00 0.00 0.00 68 1015.7
20260503015033 47 106 0.0 2.0 0.00 0.00 0.00 68 1015.7
20260503014553 47 0 0.0 2.0 0.00 0.00 0.00 68 1015.7
20260503014034 48 106 0.0 2.0 0.00 0.00 0.00 67 1015.6
20260503013533 48 0 0.0 2.0 0.00 0.00 0.00 66 1015.6
20260503013045 48 107 0.0 2.0 0.00 0.00 0.00 63 1015.6
20260503012534 48 0 0.0 2.0 0.00 0.00 0.00 64 1015.6
20260503012032 48 111 0.0 2.0 0.00 0.00 0.00 61 1015.4
20260503011541 49 0 0.0 2.0 0.00 0.00 0.00 64 1015.3
20260503011033 49 107 1.0 2.0 0.00 0.00 0.00 63 1015.3
20260503010533 49 109 0.0 2.0 0.00 0.00 0.00 61 1015.2
20260503010052 49 111 0.0 2.0 0.00 0.00 0.00 61 1015.1
20260503005533 50 112 0.0 2.0 0.00 0.00 0.00 59 1014.9
20260503005033 50 0 0.0 2.0 0.00 0.00 0.00 60 1015.0
20260503004545 51 0 0.0 3.0 0.00 0.00 0.00 59 1015.0
20260503004036 51 0 1.0 3.0 0.00 0.00 0.00 60 1015.1
20260503003617 51 0 0.0 2.0 0.00 0.00 0.00 54 1014.8
20260503003052 51 97 0.0 2.0 0.00 0.00 0.00 56 1014.7
20260503002533 52 97 0.0 2.0 0.00 0.00 0.00 52 1014.8
20260503002033 52 100 0.0 2.0 0.00 0.00 0.00 50 1014.5
20260503001613 52 0 0.0 2.0 0.00 0.00 0.00 51 1014.6
20260503001034 53 352 0.0 1.0 0.00 0.00 0.00 50 1014.5
20260503000530 53 0 0.0 5.0 0.00 0.00 0.00 51 1014.4
20260503000104 53 0 1.0 5.0 0.00 0.00 0.00 49 1014.3
20260502235534 53 162 0.0 3.0 0.00 0.00 0.00 48 1014.1
20260502235034 54 0 0.0 3.0 0.00 0.00 0.00 50 1014.0
20260502234549 54 165 0.0 3.0 0.00 0.00 0.00 47 1014.1
20260502234033 54 0 1.0 2.0 0.00 0.00 0.00 48 1014.1
20260502233533 54 0 0.0 2.0 0.00 0.00 0.00 45 1014.1
20260502233047 55 0 0.0 3.0 0.00 0.00 0.00 47 1013.9
20260502232532 55 116 0.0 3.0 0.00 0.00 0.00 43 1014.0
20260502232034 55 0 0.0 3.0 0.00 0.00 0.00 43 1013.8
20260502231545 56 175 0.0 2.0 0.00 0.00 0.00 43 1013.9
20260502231033 56 168 0.0 4.0 0.00 0.00 0.00 41 1013.6
20260502230533 56 0 1.0 4.0 0.00 0.00 0.00 41 1013.7
20260502230043 56 34 1.0 4.0 0.00 0.00 0.00 43 1013.7
20260502225533 56 0 1.0 4.0 0.00 0.00 0.00 46 1013.5
20260502225033 57 219 1.0 6.0 0.00 0.00 0.00 41 1013.6
20260502224542 57 352 1.0 6.0 0.00 0.00 0.00 39 1013.7
20260502224033 57 122 1.0 6.0 0.00 0.00 0.00 41 1013.6
20260502223533 57 238 2.0 6.0 0.00 0.00 0.00 37 1013.7
20260502223045 58 350 2.0 6.0 0.00 0.00 0.00 36 1013.6
20260502222534 57 262 1.0 9.0 0.00 0.00 0.00 37 1013.6
20260502222032 58 5 2.0 9.0 0.00 0.00 0.00 37 1013.7
20260502221546 58 76 1.0 6.0 0.00 0.00 0.00 43 1013.5
20260502221032 58 232 1.0 6.0 0.00 0.00 0.00 37 1013.6
20260502220534 58 279 1.0 5.0 0.00 0.00 0.00 36 1013.4
20260502220045 58 18 1.0 4.0 0.00 0.00 0.00 39 1013.5
20260502215534 58 0 1.0 5.0 0.00 0.00 0.00 36 1013.5
20260502215034 59 0 1.0 7.0 0.00 0.00 0.00 36 1013.4